TimePDT,TemperatureF,Dew PointF,Humidity,Sea Level PressureIn,VisibilityMPH,Wind Direction,Wind SpeedMPH,Gust SpeedMPH,PrecipitationIn,Events,Conditions,WindDirDegrees,DateUTC
12:52 AM,55.9,48.9,77,29.37,10.0,SSW,12.7,23.0,0.01,,Mostly Cloudy,210,2013-09-30 07:52:00
1:52 AM,53.1,45.0,74,29.46,10.0,WSW,17.3,-,N/A,,Clear,240,2013-09-30 08:52:00
2:52 AM,50.0,39.9,68,29.49,10.0,SW,12.7,-,N/A,,Clear,220,2013-09-30 09:52:00
3:52 AM,50.0,37.0,61,29.53,10.0,SSW,12.7,-,N/A,,Clear,210,2013-09-30 10:52:00
4:52 AM,48.9,37.0,64,29.58,10.0,SSW,6.9,-,N/A,,Clear,200,2013-09-30 11:52:00
5:52 AM,48.9,37.0,64,29.58,10.0,South,11.5,-,N/A,,Clear,190,2013-09-30 12:52:00
6:52 AM,45.0,37.0,74,29.61,10.0,South,9.2,-,N/A,,Clear,170,2013-09-30 13:52:00
7:52 AM,51.1,37.9,61,29.61,10.0,SSW,19.6,-,N/A,,Clear,210,2013-09-30 14:52:00
8:52 AM,53.1,39.9,61,29.65,10.0,Variable,3.5,-,N/A,,Clear,0,2013-09-30 15:52:00
9:52 AM,55.9,39.0,53,29.68,10.0,SW,17.3,25.3,N/A,,Overcast,220,2013-09-30 16:52:00
10:52 AM,59.0,39.0,48,29.70,10.0,SW,16.1,24.2,N/A,,Mostly Cloudy,220,2013-09-30 17:52:00
11:52 AM,62.1,37.9,41,29.71,10.0,SW,20.7,36.8,N/A,,Clear,230,2013-09-30 18:52:00
12:52 PM,63.0,37.0,38,29.75,10.0,SW,16.1,24.2,N/A,,Clear,230,2013-09-30 19:52:00
1:52 PM,60.1,36.0,41,29.77,10.0,SW,21.9,29.9,N/A,,Partly Cloudy,220,2013-09-30 20:52:00
2:52 PM,64.0,37.9,38,29.78,10.0,WSW,13.8,18.4,N/A,,Scattered Clouds,240,2013-09-30 21:52:00
3:52 PM,62.1,37.9,41,29.80,10.0,WSW,10.4,-,N/A,,Clear,240,2013-09-30 22:52:00
4:52 PM,62.1,39.0,43,29.81,10.0,SW,10.4,-,N/A,,Overcast,220,2013-09-30 23:52:00
5:52 PM,60.1,37.9,44,29.82,10.0,SW,8.1,-,N/A,,Mostly Cloudy,220,2013-10-01 00:52:00
6:52 PM,57.0,39.9,53,29.83,10.0,South,10.4,-,N/A,,Mostly Cloudy,190,2013-10-01 01:52:00
7:52 PM,55.0,39.0,55,29.85,10.0,SW,12.7,-,N/A,,Clear,220,2013-10-01 02:52:00
8:52 PM,53.1,39.0,59,29.88,10.0,SSW,10.4,-,N/A,,Clear,210,2013-10-01 03:52:00
9:52 PM,53.1,39.0,59,29.88,10.0,SSW,15.0,-,N/A,,Clear,210,2013-10-01 04:52:00
10:52 PM,51.1,37.9,61,29.90,10.0,SSW,9.2,-,N/A,,Clear,200,2013-10-01 05:52:00
11:52 PM,50.0,37.9,63,29.91,10.0,SSW,10.4,-,N/A,,Clear,210,2013-10-01 06:52:00